{"data":{"norad_id":63065,"epoch":"2026-05-25T02:01:33.381696Z","epoch_age_seconds":57906,"freshness":"FRESH","line1":"1 63065U 25035P   26145.08441414  .00010302  00000+0  38310-3 0  9992","line2":"2 63065  42.9974  75.6094 0001745 274.2782  85.7871 15.27601633 71410","mean_motion":15.27601633,"eccentricity":0.0001745,"inclination_deg":42.9974,"raan_deg":75.6094,"arg_perigee_deg":274.2782,"mean_anomaly_deg":85.7871,"bstar":0.0003831,"rev_number":7141,"period_min":94.265413763144,"perigee_km":481.78705414936,"apogee_km":484.18158548998,"semimajor_km":6861.1213198197,"source":"CELESTRAK","updated_at":"2026-05-25T13:38:19.873977Z"}}